sat.trackr.live / text

‹ back to catalog

STARLINK-30080

NORAD 56705 · 2023-067T

PAYLOAD ACTIVE UNKNOWN

§ Identity

Operator
Country
US
Launch date
2023-05-19
Launch site
AFETR
Launch vehicle
Mass (kg)
RCS (m²)

Purposes: comms

External: N2YO · Heavens-Above · Gunter

§ Orbital elements

Epoch: 2026-05-25T03:16:35.124096Z

Period
94.27 min
Inclination
43.0007°
Eccentricity
0.0001559
Mean motion
15.27576901 rev/d
Perigee alt
482.0 km
Apogee alt
484.1 km
Semi-major
6,861.2 km
B*
2.4328e-5
RAAN
191.3246°
Arg perigee
275.8425°
Mean anomaly
84.2249°
Rev number
16,748

§ Raw data

STARLINK-300801 56705U 23067T   26145.13651764  .00000407  00000+0  24328-4 0  99952 56705  43.0007 191.3246 0001559 275.8425  84.2249 15.27576901167486

JSON: /api/v1/satellites/56705 · /tle

For live sub-satellite position, see the globe view (requires WebGL).

§ Visibility from observer

Set your observer location to see the next 7 days of passes ≥ 10°. The values pass through the URL so the page stays shareable.

No JS? Fill the form by hand. The geolocation button needs JavaScript.